| time (UTC) | temp F | wind direction | speed knots | gust knots | rain 1hr in | rain 24hr in | rain mn in | humidity % | barometer mb |
| 20260506044539 | 58 | 196 | 7.8 | 8.7 | 0.00 | 0.00 | 0.00 | 87 | 1014.5 |
| 20260506044035 | 58 | 240 | 13.0 | 14.8 | 0.00 | 0.00 | 0.00 | 87 | 1014.7 |
| 20260506043532 | 58 | 236 | 9.6 | 11.3 | 0.00 | 0.00 | 0.00 | 87 | 1014.7 |
| 20260506043031 | 58 | 245 | 9.6 | 13.0 | 0.00 | 0.00 | 0.00 | 87 | 1014.8 |
| 20260506042529 | 58 | 269 | 7.0 | 8.7 | 0.00 | 0.00 | 0.00 | 87 | 1014.8 |
| 20260506042027 | 58 | 225 | 7.8 | 8.7 | 0.00 | 0.00 | 0.00 | 87 | 1014.9 |
| 20260506041526 | 58 | 234 | 11.3 | 13.9 | 0.00 | 0.00 | 0.00 | 87 | 1014.7 |
| 20260506041022 | 58 | 180 | 5.2 | 7.8 | 0.00 | 0.00 | 0.00 | 86 | 1014.7 |
| 20260506040520 | 58 | 236 | 7.8 | 8.7 | 0.00 | 0.00 | 0.00 | 86 | 1014.8 |
| 20260506040015 | 58 | 217 | 8.7 | 11.3 | 0.00 | 0.00 | 0.00 | 86 | 1014.8 |
| 20260506035513 | 59 | 252 | 7.8 | 9.6 | 0.00 | 0.00 | 0.00 | 85 | 1014.9 |
| 20260506035009 | 59 | 223 | 9.6 | 16.5 | 0.00 | 0.00 | 0.00 | 85 | 1014.4 |
| 20260506034507 | 59 | 202 | 8.7 | 13.0 | 0.00 | 0.00 | 0.00 | 85 | 1014.7 |
| 20260506034004 | 59 | 216 | 7.8 | 9.6 | 0.00 | 0.00 | 0.00 | 84 | 1014.6 |
| 20260506033501 | 59 | 241 | 7.0 | 7.8 | 0.00 | 0.00 | 0.00 | 84 | 1014.5 |
| 20260506032957 | 59 | 260 | 8.7 | 9.6 | 0.00 | 0.00 | 0.00 | 84 | 1014.5 |
| 20260506032455 | 59 | 215 | 10.4 | 13.9 | 0.00 | 0.00 | 0.00 | 84 | 1014.5 |
| 20260506031951 | 59 | 241 | 3.5 | 5.2 | 0.00 | 0.00 | 0.00 | 84 | 1014.6 |
| 20260506031449 | 59 | 205 | 5.2 | 7.8 | 0.00 | 0.00 | 0.00 | 84 | 1014.4 |
| 20260506030946 | 59 | 243 | 6.1 | 8.7 | 0.00 | 0.00 | 0.00 | 84 | 1014.5 |
| 20260506030444 | 59 | 220 | 7.0 | 12.2 | 0.00 | 0.00 | 0.00 | 84 | 1014.5 |
| 20260506025941 | 60 | 235 | 5.2 | 7.0 | 0.00 | 0.00 | 0.00 | 84 | 1014.6 |
| 20260506025438 | 60 | 243 | 3.5 | 6.1 | 0.00 | 0.00 | 0.00 | 84 | 1014.6 |
| 20260506024934 | 60 | 213 | 3.5 | 3.5 | 0.00 | 0.00 | 0.00 | 84 | 1014.5 |
| 20260506024431 | 60 | 192 | 9.6 | 13.0 | 0.00 | 0.00 | 0.00 | 84 | 1014.5 |
| 20260506023927 | 60 | 215 | 7.8 | 13.0 | 0.00 | 0.00 | 0.00 | 84 | 1014.8 |
| 20260506023424 | 60 | 207 | 6.1 | 7.0 | 0.00 | 0.00 | 0.00 | 84 | 1014.7 |
| 20260506022921 | 60 | 218 | 9.6 | 11.3 | 0.00 | 0.00 | 0.00 | 83 | 1014.6 |
| 20260506022419 | 60 | 238 | 11.3 | 15.6 | 0.00 | 0.00 | 0.00 | 83 | 1014.5 |
| 20260506021916 | 60 | 238 | 9.6 | 12.2 | 0.00 | 0.00 | 0.00 | 83 | 1014.6 |
| 20260506021413 | 60 | 223 | 7.8 | 8.7 | 0.00 | 0.00 | 0.00 | 82 | 1014.6 |
| 20260506020910 | 60 | 234 | 5.2 | 7.0 | 0.00 | 0.00 | 0.00 | 82 | 1014.4 |
| 20260506020408 | 60 | 264 | 4.3 | 6.1 | 0.00 | 0.00 | 0.00 | 82 | 1014.5 |
| 20260506015905 | 60 | 277 | 6.1 | 8.7 | 0.00 | 0.00 | 0.00 | 81 | 1014.7 |
| 20260506015403 | 60 | 237 | 7.8 | 13.0 | 0.00 | 0.00 | 0.00 | 81 | 1014.5 |
| 20260506014859 | 60 | 198 | 13.0 | 14.8 | 0.00 | 0.00 | 0.00 | 80 | 1014.5 |
| 20260506014356 | 60 | 194 | 8.7 | 11.3 | 0.00 | 0.00 | 0.00 | 80 | 1014.4 |
| 20260506013853 | 60 | 200 | 8.7 | 13.0 | 0.00 | 0.00 | 0.00 | 80 | 1014.6 |
| 20260506013351 | 60 | 234 | 9.6 | 14.8 | 0.00 | 0.00 | 0.00 | 80 | 1014.3 |
| 20260506012846 | 61 | 192 | 8.7 | 11.3 | 0.00 | 0.00 | 0.00 | 79 | 1014.3 |
| 20260506012343 | 61 | 218 | 9.6 | 11.3 | 0.00 | 0.00 | 0.00 | 78 | 1014.3 |
| 20260506011841 | 61 | 218 | 5.2 | 6.1 | 0.00 | 0.00 | 0.00 | 78 | 1014.1 |
| 20260506011337 | 61 | 243 | 6.1 | 7.8 | 0.00 | 0.00 | 0.00 | 78 | 1014.2 |
| 20260506010835 | 61 | 272 | 7.8 | 11.3 | 0.00 | 0.00 | 0.00 | 78 | 1014.1 |
| 20260506010333 | 61 | 224 | 7.8 | 9.6 | 0.00 | 0.00 | 0.00 | 78 | 1014.0 |
| 20260506005829 | 62 | 226 | 9.6 | 12.2 | 0.00 | 0.00 | 0.00 | 78 | 1014.0 |
| 20260506005326 | 62 | 183 | 7.0 | 9.6 | 0.00 | 0.00 | 0.00 | 76 | 1013.8 |
| 20260506004822 | 62 | 221 | 10.4 | 13.0 | 0.00 | 0.00 | 0.00 | 76 | 1013.9 |
| 20260506004320 | 62 | 222 | 11.3 | 13.0 | 0.00 | 0.00 | 0.00 | 76 | 1013.9 |
| 20260506003816 | 62 | 259 | 9.6 | 13.0 | 0.00 | 0.00 | 0.00 | 77 | 1013.9 |
| 20260506003312 | 62 | 214 | 9.6 | 14.8 | 0.00 | 0.00 | 0.00 | 77 | 1013.6 |
| 20260506002809 | 62 | 190 | 8.7 | 11.3 | 0.00 | 0.00 | 0.00 | 76 | 1013.9 |
| 20260506002306 | 62 | 214 | 6.1 | 8.7 | 0.00 | 0.00 | 0.00 | 76 | 1013.5 |
| 20260506001801 | 63 | 245 | 9.6 | 13.9 | 0.00 | 0.00 | 0.00 | 75 | 1013.6 |
| 20260506001258 | 63 | 252 | 6.1 | 8.7 | 0.00 | 0.00 | 0.00 | 75 | 1013.4 |
| 20260506000755 | 63 | 214 | 14.8 | 18.2 | 0.00 | 0.00 | 0.00 | 74 | 1013.3 |
| 20260506000254 | 63 | 264 | 8.7 | 12.2 | 0.00 | 0.00 | 0.00 | 74 | 1013.3 |
| 20260505235749 | 63 | 255 | 8.7 | 9.6 | 0.00 | 0.00 | 0.00 | 75 | 1013.2 |
| 20260505235247 | 63 | 205 | 11.3 | 13.0 | 0.00 | 0.00 | 0.00 | 75 | 1013.3 |
| 20260505234744 | 63 | 240 | 6.1 | 7.8 | 0.00 | 0.00 | 0.00 | 75 | 1013.1 |
| 20260505234241 | 63 | 235 | 11.3 | 14.8 | 0.00 | 0.00 | 0.00 | 74 | 1013.1 |
| 20260505233738 | 62 | 125 | 8.7 | 9.6 | 0.00 | 0.00 | 0.00 | 75 | 1013.0 |
| 20260505233236 | 62 | 209 | 9.6 | 12.2 | 0.00 | 0.00 | 0.00 | 75 | 1012.7 |
| 20260505232733 | 63 | 223 | 9.6 | 11.3 | 0.00 | 0.00 | 0.00 | 74 | 1012.7 |
| 20260505232230 | 63 | 230 | 16.5 | 20.0 | 0.00 | 0.00 | 0.00 | 74 | 1012.5 |
| 20260505231727 | 62 | 195 | 16.5 | 21.7 | 0.00 | 0.00 | 0.00 | 74 | 1012.5 |
| 20260505231226 | 62 | 223 | 8.7 | 11.3 | 0.00 | 0.00 | 0.00 | 75 | 1012.7 |
| 20260505230724 | 63 | 159 | 11.3 | 12.2 | 0.00 | 0.00 | 0.00 | 75 | 1012.5 |
| 20260505230220 | 63 | 206 | 12.2 | 15.6 | 0.00 | 0.00 | 0.00 | 74 | 1012.3 |
| 20260505225716 | 62 | 240 | 7.8 | 9.6 | 0.00 | 0.00 | 0.00 | 75 | 1012.4 |
| 20260505225214 | 62 | 193 | 10.4 | 12.2 | 0.00 | 0.00 | 0.00 | 75 | 1012.1 |
| 20260505224709 | 63 | 173 | 4.3 | 5.2 | 0.00 | 0.00 | 0.00 | 74 | 1012.3 |
| 20260505224207 | 63 | 271 | 9.6 | 13.9 | 0.00 | 0.00 | 0.00 | 74 | 1012.4 |
| 20260505223704 | 62 | 224 | 13.9 | 19.1 | 0.00 | 0.00 | 0.00 | 74 | 1012.2 |
| 20260505223200 | 63 | 238 | 8.7 | 11.3 | 0.00 | 0.00 | 0.00 | 75 | 1012.4 |
| 20260505222656 | 63 | 215 | 12.2 | 16.5 | 0.00 | 0.00 | 0.00 | 73 | 1012.3 |
| 20260505222152 | 63 | 171 | 7.0 | 8.7 | 0.00 | 0.00 | 0.00 | 73 | 1012.3 |
| 20260505221650 | 64 | 177 | 14.8 | 20.9 | 0.00 | 0.00 | 0.00 | 72 | 1012.2 |
| 20260505221146 | 64 | 219 | 11.3 | 14.8 | 0.00 | 0.00 | 0.00 | 71 | 1012.1 |
| 20260505220643 | 64 | 227 | 16.5 | 20.9 | 0.00 | 0.00 | 0.00 | 71 | 1012.3 |
| 20260505220141 | 64 | 260 | 9.6 | 13.0 | 0.00 | 0.00 | 0.00 | 70 | 1012.1 |
| 20260505215638 | 64 | 228 | 11.3 | 14.8 | 0.00 | 0.00 | 0.00 | 70 | 1011.9 |
| 20260505215137 | 64 | 272 | 11.3 | 16.5 | 0.00 | 0.00 | 0.00 | 71 | 1012.1 |
| 20260505214634 | 64 | 232 | 10.4 | 14.8 | 0.00 | 0.00 | 0.00 | 71 | 1012.2 |
| 20260505214131 | 64 | 193 | 13.9 | 18.2 | 0.00 | 0.00 | 0.00 | 71 | 1012.3 |
| 20260505213629 | 65 | 247 | 9.6 | 12.2 | 0.00 | 0.00 | 0.00 | 70 | 1012.1 |
| 20260505213125 | 65 | 249 | 5.2 | 7.0 | 0.00 | 0.00 | 0.00 | 70 | 1012.2 |
| 20260505212621 | 65 | 185 | 6.1 | 7.8 | 0.00 | 0.00 | 0.00 | 70 | 1011.7 |
| 20260505212119 | 65 | 206 | 10.4 | 15.6 | 0.00 | 0.00 | 0.00 | 70 | 1011.8 |
| 20260505211616 | 66 | 225 | 9.6 | 13.0 | 0.00 | 0.00 | 0.00 | 70 | 1011.8 |
| 20260505211113 | 65 | 191 | 1.7 | 2.6 | 0.00 | 0.00 | 0.00 | 71 | 1011.8 |
| 20260505210609 | 65 | 260 | 11.3 | 14.8 | 0.00 | 0.00 | 0.00 | 71 | 1011.8 |
| 20260505210106 | 65 | 196 | 4.3 | 6.1 | 0.00 | 0.00 | 0.00 | 71 | 1011.8 |
| 20260505205604 | 65 | 220 | 9.6 | 12.2 | 0.00 | 0.00 | 0.00 | 71 | 1011.8 |
| 20260505205102 | 64 | 240 | 9.6 | 14.8 | 0.00 | 0.00 | 0.00 | 72 | 1011.9 |
| 20260505204559 | 64 | 200 | 6.1 | 7.8 | 0.00 | 0.00 | 0.00 | 72 | 1011.9 |
| 20260505204056 | 65 | 231 | 12.2 | 14.8 | 0.00 | 0.00 | 0.00 | 72 | 1011.9 |
| 20260505203552 | 66 | 235 | 11.3 | 15.6 | 0.00 | 0.00 | 0.00 | 71 | 1012.1 |
| 20260505203050 | 65 | 282 | 8.7 | 9.6 | 0.00 | 0.00 | 0.00 | 71 | 1012.0 |
| 20260505202545 | 66 | 171 | 6.1 | 8.7 | 0.00 | 0.00 | 0.00 | 71 | 1011.8 |
| 20260505202041 | 66 | 215 | 10.4 | 13.9 | 0.00 | 0.00 | 0.00 | 71 | 1012.0 |
| 20260505201538 | 65 | 187 | 10.4 | 13.9 | 0.00 | 0.00 | 0.00 | 71 | 1012.0 |
| 20260505201036 | 64 | 172 | 11.3 | 13.0 | 0.00 | 0.00 | 0.00 | 72 | 1011.8 |
| 20260505200534 | 65 | 226 | 12.2 | 14.8 | 0.00 | 0.00 | 0.00 | 71 | 1012.2 |
| 20260505200031 | 66 | 233 | 8.7 | 9.6 | 0.00 | 0.00 | 0.00 | 71 | 1012.2 |
| 20260505195527 | 66 | 213 | 8.7 | 9.6 | 0.00 | 0.00 | 0.00 | 70 | 1012.4 |
| 20260505195024 | 66 | 214 | 5.2 | 7.0 | 0.00 | 0.00 | 0.00 | 70 | 1012.3 |
| 20260505194521 | 66 | 204 | 9.6 | 13.0 | 0.00 | 0.00 | 0.00 | 70 | 1012.4 |
| 20260505194016 | 67 | 232 | 10.4 | 13.0 | 0.00 | 0.00 | 0.00 | 69 | 1012.3 |
| 20260505193514 | 68 | 201 | 9.6 | 11.3 | 0.00 | 0.00 | 0.00 | 68 | 1012.4 |
| 20260505193011 | 68 | 182 | 5.2 | 7.0 | 0.00 | 0.00 | 0.00 | 68 | 1012.5 |
| 20260505192510 | 68 | 253 | 8.7 | 11.3 | 0.00 | 0.00 | 0.00 | 68 | 1012.6 |
| 20260505192007 | 67 | 190 | 8.7 | 9.6 | 0.00 | 0.00 | 0.00 | 69 | 1012.8 |
| 20260505191505 | 67 | 249 | 3.5 | 3.5 | 0.00 | 0.00 | 0.00 | 69 | 1012.8 |
| 20260505191002 | 67 | 262 | 3.5 | 6.1 | 0.00 | 0.00 | 0.00 | 69 | 1012.9 |
| 20260505190456 | 68 | 216 | 7.8 | 13.9 | 0.00 | 0.00 | 0.00 | 68 | 1013.0 |
| 20260505185953 | 68 | 184 | 2.6 | 3.5 | 0.00 | 0.00 | 0.00 | 69 | 1013.0 |
| 20260505185450 | 67 | 246 | 7.8 | 8.7 | 0.00 | 0.00 | 0.00 | 70 | 1013.6 |
| 20260505184946 | 67 | 221 | 5.2 | 6.1 | 0.00 | 0.00 | 0.00 | 69 | 1013.5 |
| 20260505184443 | 66 | 149 | 5.2 | 7.0 | 0.00 | 0.00 | 0.00 | 72 | 1013.3 |
| 20260505183940 | 66 | 212 | 7.0 | 8.7 | 0.00 | 0.00 | 0.00 | 71 | 1013.6 |
| 20260505183437 | 66 | 226 | 6.1 | 8.7 | 0.00 | 0.00 | 0.00 | 71 | 1013.6 |
| 20260505182933 | 65 | 129 | 4.3 | 7.0 | 0.00 | 0.00 | 0.00 | 73 | 1013.4 |
| 20260505182430 | 65 | 235 | 7.0 | 7.8 | 0.00 | 0.00 | 0.00 | 74 | 1013.6 |
| 20260505181926 | 66 | 184 | 7.0 | 8.7 | 0.00 | 0.00 | 0.00 | 73 | 1013.6 |
| 20260505181424 | 65 | 200 | 4.3 | 5.2 | 0.00 | 0.00 | 0.00 | 74 | 1013.8 |
| 20260505180920 | 65 | 130 | 8.7 | 13.0 | 0.00 | 0.00 | 0.00 | 73 | 1013.6 |
| 20260505180417 | 65 | 262 | 7.8 | 9.6 | 0.00 | 0.00 | 0.00 | 73 | 1013.7 |
| 20260505175914 | 66 | 167 | 8.7 | 9.6 | 0.00 | 0.00 | 0.00 | 73 | 1013.6 |
| 20260505175410 | 66 | 165 | 7.8 | 9.6 | 0.00 | 0.00 | 0.00 | 73 | 1013.8 |
| 20260505174907 | 66 | 220 | 6.1 | 11.3 | 0.00 | 0.00 | 0.00 | 74 | 1013.9 |
| 20260505174404 | 66 | 164 | 7.8 | 8.7 | 0.00 | 0.00 | 0.00 | 72 | 1014.0 |
| 20260505173900 | 66 | 164 | 6.1 | 7.8 | 0.00 | 0.00 | 0.00 | 74 | 1013.8 |
| 20260505173356 | 65 | 228 | 5.2 | 7.8 | 0.00 | 0.00 | 0.00 | 75 | 1013.8 |
| 20260505172854 | 65 | 168 | 7.0 | 7.8 | 0.00 | 0.00 | 0.00 | 75 | 1013.9 |
| 20260505172351 | 64 | 244 | 6.1 | 8.7 | 0.00 | 0.00 | 0.00 | 74 | 1014.0 |
| 20260505171850 | 64 | 174 | 7.0 | 8.7 | 0.00 | 0.00 | 0.00 | 75 | 1013.9 |
| 20260505171348 | 64 | 172 | 7.8 | 8.7 | 0.00 | 0.00 | 0.00 | 76 | 1014.2 |
| 20260505170844 | 64 | 230 | 8.7 | 12.2 | 0.00 | 0.00 | 0.00 | 76 | 1014.2 |
| 20260505170341 | 64 | 216 | 7.8 | 8.7 | 0.00 | 0.00 | 0.00 | 75 | 1014.2 |
| 20260505165836 | 64 | 190 | 5.2 | 7.8 | 0.00 | 0.00 | 0.00 | 75 | 1014.4 |
| 20260505165333 | 64 | 224 | 4.3 | 6.1 | 0.00 | 0.00 | 0.00 | 75 | 1014.1 |
| 20260505164828 | 65 | 238 | 10.4 | 13.0 | 0.00 | 0.00 | 0.00 | 74 | 1014.2 |
| 20260505164325 | 66 | 200 | 8.7 | 12.2 | 0.00 | 0.00 | 0.00 | 72 | 1014.1 |
| 20260505163823 | 68 | 191 | 6.1 | 7.0 | 0.00 | 0.00 | 0.00 | 72 | 1014.1 |
| 20260505163322 | 67 | 220 | 5.2 | 6.1 | 0.00 | 0.00 | 0.00 | 70 | 1014.2 |
| 20260505162819 | 68 | 192 | 1.7 | 5.2 | 0.00 | 0.00 | 0.00 | 71 | 1014.5 |
| 20260505162315 | 67 | 213 | 7.0 | 7.8 | 0.00 | 0.00 | 0.00 | 72 | 1014.2 |
| 20260505161813 | 66 | 215 | 6.1 | 7.8 | 0.00 | 0.00 | 0.00 | 73 | 1014.8 |
| 20260505161310 | 66 | 213 | 4.3 | 7.0 | 0.00 | 0.00 | 0.00 | 72 | 1014.5 |
| 20260505160807 | 67 | 239 | 5.2 | 6.1 | 0.00 | 0.00 | 0.00 | 72 | 1014.7 |
| 20260505160305 | 66 | 227 | 5.2 | 7.8 | 0.00 | 0.00 | 0.00 | 72 | 1014.6 |
| 20260505153244 | 66 | 141 | 4.3 | 6.1 | 0.00 | 0.00 | 0.00 | 73 | 1014.7 |
| 20260505152741 | 65 | 169 | 2.6 | 3.5 | 0.00 | 0.00 | 0.00 | 73 | 1014.8 |
| 20260505152237 | 65 | 138 | 6.1 | 7.0 | 0.00 | 0.00 | 0.00 | 75 | 1014.6 |
| 20260505151731 | 64 | 103 | 2.6 | 2.6 | 0.00 | 0.00 | 0.00 | 74 | 1014.9 |
| 20260505151229 | 65 | 215 | 5.2 | 6.1 | 0.00 | 0.00 | 0.00 | 74 | 1014.9 |
| 20260505150727 | 65 | 217 | 3.5 | 3.5 | 0.00 | 0.00 | 0.00 | 75 | 1015.1 |
| 20260505150224 | 64 | 212 | 4.3 | 5.2 | 0.00 | 0.00 | 0.00 | 75 | 1015.0 |
| 20260505140154 | 64 | 210 | 5.2 | 7.8 | 0.00 | 0.00 | 0.00 | 75 | 1014.8 |
| 20260505130117 | 62 | 202 | 4.3 | 5.2 | 0.00 | 0.00 | 0.00 | 81 | 1014.7 |
| 20260505124607 | 62 | 227 | 4.3 | 6.1 | 0.00 | 0.00 | 0.00 | 81 | 1014.6 |
| 20260505124103 | 61 | 181 | 3.5 | 3.5 | 0.00 | 0.00 | 0.00 | 82 | 1014.4 |
| 20260505123559 | 61 | 215 | 3.5 | 5.2 | 0.00 | 0.00 | 0.00 | 82 | 1014.4 |
| 20260505123056 | 60 | 230 | 3.5 | 3.5 | 0.00 | 0.00 | 0.00 | 83 | 1014.5 |
| 20260505122553 | 60 | 238 | 3.5 | 5.2 | 0.00 | 0.00 | 0.00 | 84 | 1014.5 |
| 20260505122050 | 59 | 177 | 2.6 | 2.6 | 0.00 | 0.00 | 0.00 | 86 | 1014.5 |
| 20260505121546 | 58 | 189 | 1.7 | 2.6 | 0.00 | 0.00 | 0.00 | 87 | 1014.5 |
| 20260505121043 | 58 | 143 | 1.7 | 1.7 | 0.00 | 0.00 | 0.00 | 87 | 1014.4 |
| 20260505120534 | 59 | 199 | 1.7 | 2.6 | 0.00 | 0.00 | 0.00 | 87 | 1014.5 |
| 20260505120029 | 58 | 198 | 1.7 | 1.7 | 0.00 | 0.00 | 0.00 | 88 | 1014.6 |
| 20260505115525 | 57 | 181 | 1.7 | 1.7 | 0.00 | 0.00 | 0.00 | 89 | 1014.7 |
| 20260505115023 | 58 | 186 | 1.7 | 1.7 | 0.00 | 0.00 | 0.00 | 89 | 1014.7 |
| 20260505114520 | 57 | 191 | 3.5 | 3.5 | 0.00 | 0.00 | 0.00 | 89 | 1014.6 |
| 20260505114015 | 57 | 176 | 1.7 | 1.7 | 0.00 | 0.00 | 0.00 | 90 | 1014.6 |
| 20260505113512 | 57 | 136 | 1.7 | 1.7 | 0.00 | 0.00 | 0.00 | 90 | 1014.7 |
| 20260505113008 | 57 | 180 | 3.5 | 3.5 | 0.00 | 0.00 | 0.00 | 90 | 1014.8 |
| 20260505112504 | 56 | 136 | 1.7 | 2.6 | 0.00 | 0.00 | 0.00 | 91 | 1014.6 |
| 20260505112002 | 57 | 142 | 1.7 | 2.6 | 0.00 | 0.00 | 0.00 | 91 | 1014.9 |
| 20260505111456 | 56 | 175 | 2.6 | 2.6 | 0.00 | 0.00 | 0.00 | 91 | 1014.7 |
| 20260505110953 | 56 | 96 | 0.9 | 0.9 | 0.00 | 0.00 | 0.00 | 92 | 1014.7 |
| 20260505110450 | 55 | 112 | 0.0 | 0.9 | 0.00 | 0.00 | 0.00 | 93 | 1014.8 |
| 20260505101921 | 53 | 178 | 1.7 | 1.7 | 0.00 | 0.00 | 0.00 | 96 | 1014.0 |
| 20260505101421 | 53 | 205 | 2.6 | 3.5 | 0.00 | 0.00 | 0.00 | 96 | 1014.1 |
| 20260505100916 | 53 | 179 | 1.7 | 2.6 | 0.00 | 0.00 | 0.00 | 97 | 1013.9 |
| 20260505100413 | 53 | 219 | 2.6 | 2.6 | 0.00 | 0.00 | 0.00 | 97 | 1013.6 |
| 20260505095909 | 53 | 182 | 2.6 | 3.5 | 0.00 | 0.00 | 0.00 | 97 | 1013.8 |
| 20260505095406 | 52 | 191 | 1.7 | 2.6 | 0.00 | 0.00 | 0.00 | 97 | 1013.6 |
| 20260505094903 | 52 | 184 | 1.7 | 1.7 | 0.00 | 0.00 | 0.00 | 97 | 1013.6 |
| 20260505094400 | 52 | 145 | 1.7 | 1.7 | 0.00 | 0.00 | 0.00 | 97 | 1013.5 |
| 20260505093855 | 52 | 152 | 0.9 | 1.7 | 0.00 | 0.00 | 0.00 | 97 | 1013.9 |
| 20260505093353 | 52 | 97 | 0.0 | 0.9 | 0.00 | 0.00 | 0.00 | 97 | 1013.7 |
| 20260505092850 | 52 | 104 | 0.0 | 0.0 | 0.00 | 0.00 | 0.00 | 97 | 1013.8 |
| 20260505092348 | 53 | 124 | 0.9 | 0.9 | 0.00 | 0.00 | 0.00 | 97 | 1013.6 |
| 20260505091845 | 53 | 97 | 0.0 | 0.0 | 0.00 | 0.00 | 0.00 | 96 | 1013.7 |
| 20260505091343 | 53 | 103 | 0.0 | 0.0 | 0.00 | 0.00 | 0.00 | 96 | 1013.7 |
| 20260505090841 | 53 | 184 | 0.9 | 1.7 | 0.00 | 0.00 | 0.00 | 96 | 1013.7 |
| 20260505090339 | 53 | 197 | 2.6 | 2.6 | 0.00 | 0.00 | 0.00 | 96 | 1014.0 |
| 20260505085835 | 53 | 173 | 2.6 | 2.6 | 0.00 | 0.00 | 0.00 | 96 | 1013.6 |
| 20260505085334 | 53 | 190 | 1.7 | 1.7 | 0.00 | 0.00 | 0.00 | 96 | 1013.6 |
| 20260505084831 | 53 | 219 | 4.3 | 5.2 | 0.00 | 0.00 | 0.00 | 96 | 1013.7 |
| 20260505084329 | 53 | 141 | 0.9 | 0.9 | 0.00 | 0.00 | 0.00 | 96 | 1013.8 |
| 20260505083826 | 53 | 182 | 3.5 | 5.2 | 0.00 | 0.00 | 0.00 | 96 | 1013.6 |
| 20260505083324 | 53 | 188 | 3.5 | 5.2 | 0.00 | 0.00 | 0.00 | 95 | 1013.6 |
| 20260505082820 | 53 | 214 | 2.6 | 3.5 | 0.00 | 0.00 | 0.00 | 95 | 1013.6 |
| 20260505082316 | 53 | 181 | 3.5 | 5.2 | 0.00 | 0.00 | 0.00 | 95 | 1013.7 |
| 20260505081813 | 53 | 185 | 3.5 | 6.1 | 0.00 | 0.00 | 0.00 | 95 | 1014.0 |
| 20260505081310 | 53 | 156 | 1.7 | 2.6 | 0.00 | 0.00 | 0.00 | 95 | 1013.8 |
| 20260505080806 | 53 | 190 | 1.7 | 2.6 | 0.00 | 0.00 | 0.00 | 95 | 1013.8 |
| 20260505080302 | 53 | 266 | 3.5 | 3.5 | 0.00 | 0.00 | 0.00 | 95 | 1013.9 |
| 20260505075758 | 53 | 177 | 3.5 | 3.5 | 0.00 | 0.00 | 0.00 | 95 | 1013.7 |
| 20260505075255 | 53 | 219 | 3.5 | 3.5 | 0.00 | 0.00 | 0.00 | 94 | 1013.7 |
| 20260505074752 | 53 | 172 | 3.5 | 3.5 | 0.00 | 0.00 | 0.00 | 94 | 1013.9 |
| 20260505074250 | 53 | 202 | 3.5 | 3.5 | 0.00 | 0.00 | 0.00 | 94 | 1013.5 |
| 20260505073747 | 53 | 239 | 3.5 | 3.5 | 0.00 | 0.00 | 0.00 | 94 | 1013.6 |
| 20260505073245 | 53 | 160 | 4.3 | 5.2 | 0.00 | 0.00 | 0.00 | 94 | 1013.6 |
| 20260505072741 | 53 | 201 | 4.3 | 6.1 | 0.00 | 0.00 | 0.00 | 94 | 1013.6 |
| 20260505072237 | 54 | 221 | 2.6 | 3.5 | 0.00 | 0.00 | 0.00 | 94 | 1013.6 |
| 20260505071733 | 53 | 192 | 3.5 | 3.5 | 0.00 | 0.00 | 0.00 | 94 | 1013.8 |
| 20260505071230 | 54 | 211 | 2.6 | 2.6 | 0.00 | 0.00 | 0.00 | 94 | 1013.7 |
| 20260505070728 | 54 | 187 | 3.5 | 3.5 | 0.00 | 0.00 | 0.00 | 94 | 1013.6 |
| 20260505070224 | 54 | 141 | 0.9 | 1.7 | 0.00 | 0.00 | 0.00 | 93 | 1013.5 |
| 20260505065720 | 54 | 193 | 2.6 | 3.5 | 0.00 | 0.00 | 0.00 | 93 | 1013.6 |
| 20260505065217 | 54 | 193 | 6.1 | 7.0 | 0.00 | 0.00 | 0.00 | 93 | 1013.9 |
| 20260505064714 | 54 | 175 | 3.5 | 3.5 | 0.00 | 0.00 | 0.00 | 93 | 1013.7 |
| 20260505064212 | 54 | 188 | 1.7 | 1.7 | 0.00 | 0.00 | 0.00 | 93 | 1013.9 |
| 20260505063709 | 54 | 213 | 3.5 | 3.5 | 0.00 | 0.00 | 0.00 | 93 | 1014.0 |
| 20260505063205 | 54 | 198 | 3.5 | 5.2 | 0.00 | 0.00 | 0.00 | 93 | 1013.7 |
| 20260505062701 | 54 | 229 | 3.5 | 6.1 | 0.00 | 0.00 | 0.00 | 93 | 1013.6 |
| 20260505062159 | 54 | 228 | 4.3 | 5.2 | 0.00 | 0.00 | 0.00 | 93 | 1013.8 |
| 20260505061656 | 54 | 236 | 4.3 | 6.1 | 0.00 | 0.00 | 0.00 | 93 | 1014.0 |
| 20260505061154 | 54 | 174 | 3.5 | 5.2 | 0.00 | 0.00 | 0.00 | 93 | 1014.1 |
| 20260505060651 | 54 | 198 | 2.6 | 2.6 | 0.00 | 0.00 | 0.00 | 93 | 1014.1 |
| 20260505060148 | 54 | 129 | 2.6 | 3.5 | 0.00 | 0.00 | 0.00 | 93 | 1014.2 |
| 20260505055643 | 54 | 172 | 5.2 | 6.1 | 0.00 | 0.00 | 0.00 | 93 | 1014.1 |
| 20260505055140 | 54 | 196 | 4.3 | 5.2 | 0.00 | 0.00 | 0.00 | 93 | 1014.1 |
| 20260505054637 | 54 | 209 | 5.2 | 7.0 | 0.00 | 0.00 | 0.00 | 93 | 1013.9 |
| 20260505054135 | 54 | 174 | 3.5 | 3.5 | 0.00 | 0.00 | 0.00 | 92 | 1014.3 |
| 20260505053633 | 54 | 160 | 2.6 | 2.6 | 0.00 | 0.00 | 0.00 | 92 | 1014.3 |
| 20260505053129 | 54 | 194 | 3.5 | 3.5 | 0.00 | 0.00 | 0.00 | 92 | 1014.3 |
| 20260505052626 | 54 | 201 | 2.6 | 2.6 | 0.00 | 0.00 | 0.00 | 92 | 1014.1 |
| 20260505052123 | 54 | 174 | 3.5 | 5.2 | 0.00 | 0.00 | 0.00 | 92 | 1014.3 |
| 20260505051620 | 54 | 243 | 4.3 | 6.1 | 0.00 | 0.00 | 0.00 | 92 | 1014.2 |
| 20260505051118 | 54 | 218 | 4.3 | 5.2 | 0.00 | 0.00 | 0.00 | 91 | 1014.2 |
| 20260505050616 | 55 | 152 | 3.5 | 3.5 | 0.00 | 0.00 | 0.00 | 91 | 1014.3 |
| 20260505050114 | 55 | 194 | 1.7 | 1.7 | 0.00 | 0.00 | 0.00 | 91 | 1014.2 |